OpenBCM V1.13 (Linux)

Packet Radio Mailbox

DB0FHN

[JN59NK Nuernberg]

 Login: GUEST





  
CX2SA  > KEPS     13.08.04 06:53l 165 Lines 7765 Bytes #999 (0) @ AMSAT
BID : ORB04225.N
Read: GUEST DL7NDR
Subj: 2Line Orbital Elements 04225.AMSAT
Path: DB0FHN<DB0FOR<DB0SIF<DB0EA<DB0RES<ON0AR<VE3FJB<YV6BTF<ED1ZAC<CX2SA
Sent: 040813/0439Z @:CX2SA.LAV.URY.SA #:64827 [Minas] FBB7.00e $:ORB04225.N
From: CX2SA@CX2SA.LAV.URY.SA
To  : KEPS@AMSAT


HR AMSAT ORBITAL ELEMENTS FOR AMATEUR SATELLITES IN NASA FORMAT
FROM WA5QGD FORT WORTH,TX August 12, 2004
SEND SUBSCRIBE/UNSUBSCRIBE TO majordomo@amsat.org ONLY
BID: ORB04225.N

DECODE 2-LINE ELSETS WITH THE FOLLOWING KEY:
1 AAAAAU 00  0  0 BBBBB.BBBBBBBB  .CCCCCCCC  00000-0  00000-0 0  DDDZ
2 AAAAA EEE.EEEE FFF.FFFF GGGGGGG HHH.HHHH III.IIII JJ.JJJJJJJJKKKKKZ
KEY: A-CATALOGNUM B-EPOCHTIME C-DECAY D-ELSETNUM E-INCLINATION F-RAAN
G-ECCENTRICITY H-ARGPERIGEE I-MNANOM J-MNMOTION K-ORBITNUM Z-CHECKSUM

TO ALL RADIO AMATEURS BT

AO-07
1 07530U 74089B   04225.70011990 -.00000029  00000-0  10000-3 0  3072
2 07530 101.6792 271.5447 0012264 111.8425 248.3952 12.53568910360990
AO-10
1 14129U 83058B   04222.07036874 -.00000343  00000-0  10000-3 0   880
2 14129  26.5380  77.6641 6023638 114.1141 318.2309  2.05870254159100
UO-11
1 14781U 84021B   04225.66396608  .00000359  00000-0  55967-4 0  5509
2 14781  98.1767 211.4542 0007976 271.1273  88.9019 14.78967373 96197
RS-10/11
1 18129U 87054A   04225.19997762  .00000024  00000-0  97263-5 0  4856
2 18129  82.9237 106.7028 0011845 157.7181 202.4488 13.72742423858685
FO-20
1 20480U 90013C   04224.65220900 -.00000050  00000-0 -35418-4 0 06969
2 20480 099.0418 091.6166 0539793 221.1689 134.7490 12.83341036679798
RS-12/13
1 21089U 91007A   04225.79873944  .00000041  00000-0  27944-4 0  7163
2 21089  82.9239 139.7643 0027772 216.9532 142.9709 13.74439787678131
RS-15
1 23439U 94085A   04224.16096230 -.00000042  00000-0  16976-4 0  7983
2 23439  64.8154 248.9291 0153935  11.4990 348.9385 11.27549517396433
FO-29
1 24278U 96046B   04224.85770182  .00000010  00000-0  49563-4 0  7831
2 24278  98.5865 309.5322 0349806 257.4785  98.7019 13.52901478394367
SO-33
1 25509U 98061B   04225.66269376  .00000182  00000-0  24911-4 0  1728
2 25509  31.4342 336.3092 0355832 349.6395   9.7072 14.27858672302696
AO-40
1 26609U 00072B   04224.39036627 -.00000323  00000-0  10000-3 0  4224
2 26609   9.9769 347.5420 7973909 310.1505   3.9814  1.25586933 17363
UO-14
1 20437U 90005B   04225.01483819  .00000025  00000-0  24842-4 0  5657
2 20437  98.2085 245.8460 0011540  38.4013 321.8006 14.31365785759801
AO-16
1 20439U 90005D   04225.14563630  .00000015  00000-0  20774-4 0  2525
2 20439  98.2439 260.4566 0011972  44.3625 315.8525 14.31622943759878
WO-18
1 20441U 90005F   04224.67723182  .00000033  00000-0  27712-4 0  4379
2 20441  98.2576 264.0042 0012713  45.6571 314.5653 14.31699178759861
LO-19
1 20442U 90005G   04225.71067526 -.00000018  00000-0  87153-5 0  2085
2 20442  98.2714 268.9984 0012850  42.6299 317.5880 14.31869260760071
UO-22
1 21575U 91050B   04225.64206347  .00000070  00000-0  35673-4 0  1762
2 21575  98.1964 197.4135 0006386 304.1948  55.8621 14.39405055686116
KO-23
1 22077U 92052B   04224.95986653 -.00000037  00000-0  10000-3 0 03145
2 22077 066.0828 074.0478 0007075 328.9122 031.1475 12.86424822563819
AO-27
1 22825U 93061C   04225.71400252 -.00000065  00000-0 -97695-5 0  9154
2 22825  98.2422 231.7485 0009600  96.7158 263.5102 14.29078791567161
IO-26
1 22826U 93061D   04225.02702577  .00000039  00000-0  31331-4 0  6019
2 22826  98.2428 232.3777 0009947  95.1930 265.0388 14.29315339567125
KO-25
1 22828U 93061F   04225.65259264 -.00000035  00000-0  20089-5 0  8502
2 22828  98.2357 233.2080 0010945  75.4961 284.7436 14.29636008535430
TO-31
1 25396U 98043C   04225.80282168 -.00000043  00000-0  00000 0 0   579
2 25396  98.5720 295.6684 0002653  26.6612 333.4703 14.23628925316530
GO-32
1 25397U 98043D   04225.76000357 -.00000108  00000-0 -28769-4 0  5354
2 25397  98.5621 293.7020 0001580  49.5190 310.6126 14.23047493316460
UO-36
1 25693U 99021A   04225.82255860  .00000002  00000-0  20102-4 0  3473
2 25693  64.5584 150.6326 0048103 251.6412 107.9433 14.78368716286238
SO-41
1 26545U 00057A   04224.90090289  .00000197  00000-0  44819-4 0  8483
2 26545  64.5576 169.9949 0014305   6.9242 353.2105 14.79824684209159
MO-46
1 26548U 00057D   04224.97960729  .00000285  00000-0  53496-4 0  9488
2 26548  64.5564 156.2207 0014764 342.3385  17.7167 14.82365821209448
SO-42
1 26549U 00057E   04225.19887315  .00000200  00000-0  46218-4 0  9406
2 26549  64.5522 176.0302 0014752  27.8172 332.3718 14.78719148209061
NO-44
1 26931U 01043C   04225.66973604  .00000047  00000-0  50703-4 0  8307
2 26931  67.0545 302.3468 0006284 273.9686  86.0730 14.29313784149670
AO-49
1 27605U 02058A   04225.82434726  .00000098  00000-0  36779-4 0  5094
2 27605  64.5593 352.7883 0080438 300.4101  58.9071 14.71909016 88466
SO-50
1 27607U 02058C   04224.87808644  .00000138  00000-0  43725-4 0  4907
2 27607  64.5599 359.5616 0081593 299.7140  59.6109 14.70691442 88245
AO-51
1 28375U 04025K   04225.63664796  .00000051  00000-0  28262-4 0   403
2 28375  98.2569 293.7076 0085298  82.5572 278.5319 14.40381181  6193
NOAA-10
1 16969U 86073A   04225.37383457  .00000092  00000-0  56179-4 0  3490
2 16969  98.7568 224.4990 0011839 316.4206  43.6050 14.27207328931041
NOAA-11
1 19531U 88089A   04225.44426363  .00000025  00000-0  36194-4 0  2084
2 19531  98.8654 308.9769 0012565 105.3707 254.8881 14.14723918819278
NOAA-12
1 21263U 91032A   04225.81848002  .00000200  00000-0  84915-4 0  6915
2 21263  98.6731 213.0295 0011778 245.2070 114.8368 14.25401288688352
MET-3/5
1 21655U 91056A   04224.90294692  .00000051  00000-0  10000-3 0 06776
2 21655 082.5586 017.1495 0012261 290.0017 069.9785 13.16996858624601
MET-2/21
1 22782U 93055A   04224.82566507 -.00000026  00000-0 -37162-4 0  9762
2 22782  82.5498 146.3940 0020907 271.5326  88.3436 13.83566589552794
OKEAN-4
1 23317U 94066A   04225.39256798  .00000354  00000-0  41555-4 0  4242
2 23317  82.5406 185.2349 0024420  73.7320 286.6578 14.81846538530175
NOAA-14
1 23455U 94089A   04225.81134352  .00000068  00000-0  35996-4 0  2385
2 23455  99.1361 262.3948 0009858 145.5237 214.7060 14.13477428496023
SICH-1
1 23657U 95046A   04224.93800507  .00000334  00000-0  39975-4 0 02474
2 23657 082.5316 326.4742 0025922 060.0714 300.3067 14.80888724482188
NOAA-15
1 25338U 98030A   04225.78229905  .00000118  00000-0  50947-4 0  6947
2 25338  98.5205 237.4369 0010613 173.8213 186.3587 14.24443137324855
RESURS
1 25394U 98043A   04225.82985880 -.00000005  00000-0  16441-4 0  8757
2 25394  98.5786 297.1965 0001632  15.3076 344.8150 14.24017360316565
FENGYUN1
1 25730U 99025A   04224.99200144  .00000063  00000-0  57493-4 0  2054
2 25730  98.6050 233.2064 0013600 261.8837  98.0781 14.11777047270889
OKEAN-0
1 25860U 99039A   04224.91974546  .00000058  00000-0  16331-4 0 02611
2 25860 097.7942 257.8450 0002125 104.2944 255.8501 14.73097681272470
NOAA-16
1 26536U 00055A   04225.80436175  .00000092  00000-0  50318-4 0  9801
2 26536  98.9669 177.2578 0010000 213.9953 146.1052 14.12140704200534
NOAA-17
1 27453U 02032A   04225.81520516  .00000142  00000-0  62319-4 0    59
2 27453  98.6976 297.4594 0011173 226.3374 133.7363 14.23557527110962
HUBBLE
1 20580U 90037B   04225.09951062  .00000739  00000-0  45977-4 0  1299
2 20580  28.4662 122.0461 0003843 234.9962 125.0269 14.99249854583808
UARS
1 21701U 91063B   04224.66733638 -.00000254  00000-0  35511-6 0 02451
2 21701 056.9814 004.5383 0006894 108.2735 251.9052 15.03589383706936
PO-34
1 25520U 98064B   04225.16551718  .00000963  00000-0  39347-4 0  9884
2 25520  28.4614 217.3968 0005633 104.3548 255.7640 15.15664684319647
ISS
1 25544U 98067A   04225.94334869  .00017384  00000-0  14134-3 0  4320
2 25544  51.6331  36.0378 0005656 110.3739  26.2020 15.70786767327237
OO-38
1 26063U 00004C   04224.90944835  .00000009  00000-0  23442-4 0 01344
2 26063 100.2179 022.0372 0036704 205.0130 154.9288 14.35660654237926
NO-45
1 26932U 01043D   04225.66252937  .00000086  00000-0  66174-4 0  8275
2 26932  67.0586 302.0105 0004298 278.5708  81.4925 14.29436370149706


Read previous mail | Read next mail


 11.06.2026 16:09:06lGo back Go up